This is the latest recevied weather packets stored in our database for station/object W6ORV. If no packets are shown the sender has not sent any weather packets the latest 10 day(s).
| Time | Temp. | Humidity | Pressure | Rain* | Wind** | Luminosity | Snow |
|---|---|---|---|---|---|---|---|
| 1777462356 | 5.56° C | 96% | 4303.4 hPa | 0 mm | - | 0 W/m² | - |
| 1777462053 | 5.56° C | 96% | 4303.5 hPa | 0 mm | - | 0 W/m² | - |
| 1777461750 | 5.56° C | 95% | 4303.4 hPa | 0 mm | - | 0 W/m² | - |
| 1777461445 | 5.56° C | 95% | 4303.5 hPa | 0 mm | - | 0 W/m² | - |
| 1777461142 | 6.11° C | 95% | 4303.7 hPa | 0 mm | - | 0 W/m² | - |
| 1777460837 | 6.11° C | 95% | 4303.6 hPa | 0 mm | - | 0 W/m² | - |
| 1777460533 | 6.67° C | 94% | 4303.4 hPa | 0 mm | - | 0 W/m² | - |
| 1777460229 | 6.67° C | 94% | 4303.5 hPa | 0 mm | - | 0 W/m² | - |
| 1777459926 | 6.67° C | 94% | 4303.2 hPa | 0 mm | - | 0 W/m² | - |
| 1777459623 | 7.22° C | 94% | 4303.3 hPa | 0 mm | - | 0 W/m² | - |
| 1777459319 | 7.78° C | 94% | 4303.5 hPa | 0 mm | - | 0 W/m² | - |
| 1777459018 | 7.78° C | 95% | 4303.4 hPa | 0 mm | - | 0 W/m² | - |
| 1777458715 | 7.22° C | 94% | 4303.3 hPa | 0 mm | - | 0 W/m² | - |
| 1777458411 | 7.22° C | 94% | 4303.3 hPa | 0 mm | - | 0 W/m² | - |
| 1777458107 | 7.22° C | 94% | 4303.3 hPa | 0 mm | - | 0 W/m² | - |
| 1777457803 | 7.22° C | 94% | 4303.2 hPa | 0 mm | - | 0 W/m² | - |
| 1777457503 | 7.22° C | 95% | 4303.5 hPa | 0 mm | - | 0 W/m² | - |
| 1777457199 | 7.22° C | 94% | 4303.4 hPa | 0 mm | - | 0 W/m² | - |
| 1777456895 | 7.22° C | 94% | 4303.4 hPa | 0 mm | - | 0 W/m² | - |
| 1777456590 | 6.67° C | 94% | 4303.2 hPa | 0 mm | - | 0 W/m² | - |
| 1777456286 | 6.67° C | 94% | 4303.2 hPa | 0 mm | - | 0 W/m² | - |
| 1777455982 | 6.67° C | 93% | 4303.2 hPa | 0 mm | - | 0 W/m² | - |
| 1777455678 | 6.67° C | 93% | 4303.2 hPa | 0 mm | - | 0 W/m² | - |
| 1777455375 | 7.78° C | 92% | 4303.3 hPa | 0 mm | - | 0 W/m² | - |
| 1777455072 | 8.33° C | 92% | 4302.9 hPa | 0 mm | - | 0 W/m² | - |
* Rain latest hour (hover to see other rain measurements)
** Current wind speed in m/s (hover to see current wind gust speed)